Gallup, NM

8:19 PM MDT on April 26, 2017 (GMT -0600)
Gallup Municipal

Weather History for KGUP - September, 2013

Change the Weather History Date:

Friday, September 13, 2013

  Actual Average Record
Temperature  
Mean Temperature 63 °F -  
Max Temperature 75 °F 77 °F 90 °F (1990)
Min Temperature 53 °F 43 °F 36 °F (1989)
Degree Days  
Heating Degree Days 2    
Growing Degree Days 13 (Base 50)    
Moisture  
Dew Point 53 °F    
Average Humidity 77    
Maximum Humidity 97    
Minimum Humidity 53    
Precipitation  
Precipitation 0.05 in - - ()
Sea Level Pressure  
Sea Level Pressure 29.88 in    
Wind  
Wind Speed 6 mph (ENE)    
Max Wind Speed 24 mph    
Max Gust Speed 31 mph    
Visibility 10 miles    
Events Rain , Thunderstorm    
Averages and records for this station are not official NWS values.
T = Trace of Precipitation, MM = Missing Value Source: NWS Daily Summary

Daily Weather History Graph

Daily Weather History Graph

Search for Another Location

Airport or City:

Trip Planner

Search our weather history database for the weather conditions in past years. The results will help you decide how hot, cold, wet, or windy it might be!

Date:

Astronomy

Sep. 13, 2013 Rise Set
Actual Time 6:56 AM MDT 7:24 PM MDT
Civil Twilight 6:31 AM MDT 7:50 PM MDT
Nautical Twilight 6:00 AM MDT 8:20 PM MDT
Astronomical Twilight 5:30 AM MDT 8:50 PM MDT
Moon 3:08 PM MDT (9/13) 12:38 AM MDT (9/13)
Length of Visible Light 13h 19m
Length of Day
12h 28m
Waxing Gibbous, 62% of the Moon is Illuminated
Sep 13
Waxing Gibbous
Sep 19
Full
Sep 26
Last Quarter
Oct 4
New
Oct 11
First Quarter

Hourly Weather History & Observations

Time (MDT) Temp. Dew Point Humidity Pressure Visibility Wind Dir Wind Speed Gust Speed Precip Events Conditions
12:53 AM 55.0 °F 54.0 °F 96% 29.81 in 10.0 mi Calm Calm - N/A   Overcast
1:53 AM 55.9 °F 55.0 °F 97% 29.80 in 10.0 mi Calm Calm - N/A   Overcast
2:53 AM 55.9 °F 55.0 °F 97% 29.80 in 10.0 mi Calm Calm - N/A   Overcast
3:53 AM 55.0 °F 54.0 °F 96% 29.82 in 10.0 mi Calm Calm - N/A   Partly Cloudy
4:53 AM 54.0 °F 53.1 °F 97% 29.81 in 10.0 mi SSE 3.5 mph - N/A   Overcast
5:53 AM 55.0 °F 53.1 °F 93% 29.78 in 10.0 mi Calm Calm - N/A   Scattered Clouds
6:53 AM 53.1 °F 52.0 °F 96% 29.83 in 10.0 mi Calm Calm - N/A   Mostly Cloudy
7:53 AM 55.0 °F 54.0 °F 96% 29.84 in 10.0 mi Calm Calm - N/A   Overcast
8:53 AM 57.0 °F 55.0 °F 93% 29.85 in 10.0 mi Calm Calm - N/A   Partly Cloudy
9:53 AM 63.0 °F 55.9 °F 78% 29.82 in 10.0 mi Calm Calm - N/A   Mostly Cloudy
10:53 AM 64.9 °F 57.0 °F 75% 29.79 in 10.0 mi Calm Calm - N/A   Partly Cloudy
11:53 AM 69.1 °F 57.9 °F 68% 29.75 in 10.0 mi Calm Calm - N/A   Partly Cloudy
12:53 PM 73.0 °F 55.0 °F 53% 29.71 in 10.0 mi Calm Calm - N/A   Clear
1:53 PM 72.0 °F 59.0 °F 64% 29.68 in 10.0 mi NE 16.1 mph 19.6 mph N/A   Scattered Clouds
2:53 PM 69.1 °F 55.9 °F 63% 29.67 in 10.0 mi East 12.7 mph - 0.00 in Rain Light Rain
3:46 PM 64.4 °F 53.6 °F 68% 30.07 in 10.0 mi North 20.7 mph 31.1 mph 0.04 in Thunderstorm Mostly Cloudy
3:53 PM 64.0 °F 53.1 °F 67% 29.72 in 10.0 mi NNW 23.0 mph 28.8 mph 0.04 in Thunderstorm Mostly Cloudy
4:23 PM 66.2 °F 53.6 °F 64% 30.08 in 10.0 mi North 18.4 mph 25.3 mph N/A   Mostly Cloudy
4:35 PM 64.4 °F 51.8 °F 64% 30.08 in 10.0 mi North 24.2 mph 29.9 mph N/A Thunderstorm Partly Cloudy
4:53 PM 64.9 °F 54.0 °F 68% 29.73 in 10.0 mi NNE 20.7 mph 26.5 mph N/A Thunderstorm Scattered Clouds
5:33 PM 66.2 °F 51.8 °F 60% 30.08 in 10.0 mi NE 19.6 mph 24.2 mph N/A   Scattered Clouds
5:45 PM 64.4 °F 53.6 °F 68% 30.08 in 10.0 mi East 20.7 mph - N/A Thunderstorm Partly Cloudy
5:53 PM 63.0 °F 54.0 °F 72% 29.74 in 10.0 mi East 17.3 mph - N/A Thunderstorm Partly Cloudy
6:00 PM 64.4 °F 53.6 °F 68% 30.07 in 10.0 mi ENE 13.8 mph - N/A   Scattered Clouds
6:53 PM 62.1 °F 53.1 °F 72% 29.74 in 10.0 mi East 15.0 mph - N/A   Mostly Cloudy
7:13 PM 62.6 °F 50.0 °F 63% 30.07 in 10.0 mi ESE 12.7 mph - N/A Thunderstorm Mostly Cloudy
7:28 PM 60.8 °F 50.0 °F 68% 30.08 in 10.0 mi ESE 9.2 mph - N/A   Mostly Cloudy
7:37 PM 60.8 °F 50.0 °F 68% 30.09 in 10.0 mi ESE 6.9 mph - N/A Thunderstorm Mostly Cloudy
7:53 PM 60.1 °F 51.1 °F 72% 29.77 in 10.0 mi Variable 6.9 mph - 0.01 in Rain Light Rain
8:03 PM 59.0 °F 51.8 °F 77% 30.10 in 10.0 mi West 3.5 mph - 0.00 in Rain , Thunderstorm Light Rain
8:18 PM 59.0 °F 51.8 °F 77% 30.10 in 10.0 mi East 4.6 mph - 0.00 in   Overcast
8:53 PM 60.1 °F 52.0 °F 75% 29.79 in 10.0 mi NNE 6.9 mph - 0.00 in   Overcast
9:53 PM 57.9 °F 54.0 °F 87% 29.78 in 10.0 mi East 5.8 mph - 0.00 in   Overcast
10:32 PM 57.2 °F 53.6 °F 88% 30.14 in 10.0 mi SSE 13.8 mph - N/A Thunderstorm Thunderstorm
10:53 PM 57.9 °F 51.1 °F 78% 29.75 in 10.0 mi SE 15.0 mph 21.9 mph N/A Thunderstorm Thunderstorm
11:02 PM 57.2 °F 50.0 °F 77% 30.13 in 10.0 mi SSE 12.7 mph - N/A   Scattered Clouds
11:53 PM 57.0 °F 51.1 °F 81% 29.73 in 10.0 mi ESE 11.5 mph - N/A   Mostly Cloudy